Tracking 22881 objects as of 19-Apr-2021
HD Live streaming from Space Station
objects crossing your sky now

STARLINK-1700

Track STARLINK-1700 now!
10-day predictions
STARLINK-1700 is classified as:


NORAD ID: 46549
Int'l Code: 2020-070T
Perigee: 552.9 km
Apogee: 555.8 km
Inclination: 53.1 °
Period: 95.6 minutes
Semi major axis: 6925 km
RCS: Unknown
Launch date: October 6, 2020
Source: United States (US)
Launch site: AIR FORCE EASTERN TEST RANGE (AFETR)
aabbcc
Your satellite tracking list
Your tracking list is empty




NASA's NSSDC Master Catalog

Two Line Element Set (TLE):
1 46549U 20070T   21108.93368991  .00000142  00000-0  28422-4 0  9996
2 46549  53.0593 273.1831 0002052 113.0406 247.0799 15.06397150 30057
Source of the keplerian elements: AFSPC